H1 CPF 2 NER 2022 9 3 9 246 01 glonass129 H2 1106402 9129 37868 2022 9 3 0 0 0 2022 9 6 23 45 0 900 1 1 0 0 0 1 H9 10 0 59825 0.00000 0 6612993.350 -17258399.771 17588827.144 10 0 59825 900.00000 0 7996185.398 -18744564.049 15341757.898 10 0 59825 1800.00000 0 9070945.787 -20108351.440 12796697.487 10 0 59825 2700.00000 0 9840981.275 -21288529.826 10002905.168 10 0 59825 3600.00000 0 10322378.514 -22227923.664 7014551.386 10 0 59825 4500.00000 0 10542681.663 -22875864.368 3889672.813 10 0 59825 5400.00000 0 10539488.745 -23190391.835 689044.916 10 0 59825 6300.00000 0 10358625.632 -23140112.328 -2525006.005 10 0 59825 7200.00000 0 10051974.934 -22705632.021 -5689827.375 10 0 59825 8100.00000 0 9675052.466 -21880503.175 -8743676.457 10 0 59825 9000.00000 0 9284435.278 -20671640.592 -11626942.287 10 0 59825 9900.00000 0 8935151.996 -19099188.760 -14283327.598 10 0 59825 10800.00000 0 8678148.253 -17195843.721 -16660965.797 10 0 59825 11700.00000 0 8557936.793 -15005657.353 -18713449.415 10 0 59825 12600.00000 0 8610533.904 -12582374.135 -20400748.369 10 0 59825 13500.00000 0 8861771.312 -9987370.581 -21689999.114 10 0 59825 14400.00000 0 9326056.287 -7287284.468 -22556148.632 10 0 59825 15300.00000 0 10005633.109 -4551434.206 -22982440.573 10 0 59825 16200.00000 0 10890377.310 -1849137.179 -22960734.407 10 0 59825 17100.00000 0 11958131.027 752960.197 -22491652.096 10 0 59825 18000.00000 0 13175564.579 3193428.880 -21584550.401 10 0 59825 18900.00000 0 14499526.899 5418374.138 -20257320.639 10 0 59825 19800.00000 0 15878826.789 7383427.338 -18536021.059 10 0 59825 20700.00000 0 17256368.795 9055330.963 -16454350.388 10 0 59825 21600.00000 0 18571552.852 10413052.990 -14052974.095 10 0 59825 22500.00000 0 19762835.989 11448386.744 -11378717.663 10 0 59825 23400.00000 0 20770347.975 12166014.135 -8483643.652 10 0 59825 24300.00000 0 21538450.962 12583032.798 -5424031.383 10 0 59825 25200.00000 0 22018135.960 12727970.024 -2259279.624 10 0 59825 26100.00000 0 22169156.225 12639327.560 949245.936 10 0 59825 27000.00000 0 21961809.040 12363720.680 4139398.034 10 0 59825 27900.00000 0 21378292.295 11953691.374 7249443.332 10 0 59825 28800.00000 0 20413580.157 11465288.532 10219245.392 10 0 59825 29700.00000 0 19075782.174 10955517.153 12991413.206 10 0 59825 30600.00000 0 17385971.417 10479763.474 15512394.326 10 0 59825 31500.00000 0 15377489.074 10089303.405 17733492.804 10 0 59825 32400.00000 0 13094754.109 9828997.826 19611793.946 10 0 59825 33300.00000 0 10591626.575 9735270.305 21110979.604 10 0 59825 34200.00000 0 7929391.176 9834451.067 22202019.697 10 0 59825 35100.00000 0 5174442.788 10141555.981 22863727.874 10 0 59825 36000.00000 0 2395767.625 10659551.642 23083171.384 10 0 59825 36900.00000 0 -337677.936 11379137.862 22855927.525 10 0 59825 37800.00000 0 -2959584.613 12279057.901 22186181.489 10 0 59825 38700.00000 0 -5408797.256 13326925.236 21086662.841 10 0 59825 39600.00000 0 -7631609.208 14480534.499 19578420.478 10 0 59825 40500.00000 0 -9583749.882 15689604.062 17690438.633 10 0 59825 41400.00000 0 -11231983.373 16897879.630 15459099.214 10 0 59825 42300.00000 0 -12555251.288 18045512.558 12927498.785 10 0 59825 43200.00000 0 -13545311.519 19071614.471 10144631.348 10 0 59825 44100.00000 0 -14206845.252 19916881.460 7164451.010 10 0 59825 45000.00000 0 -14557026.616 20526177.200 4044831.591 10 0 59825 45900.00000 0 -14624572.102 20850965.121 846442.680 10 0 59825 46800.00000 0 -14448309.154 20851485.306 -2368435.959 10 0 59825 47700.00000 0 -14075324.087 20498581.908 -5537137.821 10 0 59825 48600.00000 0 -13558768.051 19775101.317 -8597845.897 10 0 59825 49500.00000 0 -12955414.802 18676799.375 -11490815.989 10 0 59825 50400.00000 0 -12323075.173 17212716.916 -14159561.265 10 0 59825 51300.00000 0 -11717979.627 15405005.780 -16551973.027 10 0 59825 52200.00000 0 -11192241.786 13288211.189 -18621354.058 10 0 59825 53100.00000 0 -10791512.341 10908039.912 -20327342.750 10 0 59825 54000.00000 0 -10552924.403 8319665.817 -21636708.971 10 0 59825 54900.00000 0 -10503418.535 5585644.199 -22524005.453 10 0 59825 55800.00000 0 -10658519.060 2773523.018 -22972061.854 10 0 59825 56700.00000 0 -11021613.508 -46748.203 -22972312.173 10 0 59825 57600.00000 0 -11583765.273 -2805502.838 -22524949.858 10 0 59825 58500.00000 0 -12324066.462 -5436022.355 -21638908.556 10 0 59825 59400.00000 0 -13210514.820 -7877071.075 -20331670.149 10 0 59825 60300.00000 0 -14201376.297 -10075195.361 -18628905.091 10 0 59825 61200.00000 0 -15246974.306 -11986692.422 -16563953.448 10 0 59825 62100.00000 0 -16291828.865 -13579168.448 -14177158.045 10 0 59825 63000.00000 0 -17277054.371 -14832623.334 -11515063.874 10 0 59825 63900.00000 0 -18142914.156 -15740019.388 -8629500.447 10 0 59825 64800.00000 0 -18831423.855 -16307313.230 -5576565.796 10 0 59825 65700.00000 0 -19288894.024 -16552952.591 -2415532.450 10 0 59825 66600.00000 0 -19468305.395 -16506861.909 792302.883 10 0 59825 67500.00000 0 -19331417.655 -16208961.784 3984803.589 10 0 59825 68400.00000 0 -18850524.057 -15707286.392 7100188.652 10 0 59825 69300.00000 0 -18009779.247 -15055779.208 10078216.749 10 0 59825 70200.00000 0 -16806045.564 -14311860.238 12861336.944 10 0 59825 71100.00000 0 -15249223.004 -13533866.881 15395784.964 10 0 59825 72000.00000 0 -13362049.367 -12778475.201 17632605.218 10 0 59825 72900.00000 0 -11179378.622 -12098208.771 19528580.467 10 0 59825 73800.00000 0 -8746966.696 -11539138.239 21047052.791 10 0 59825 74700.00000 0 -6119813.810 -11138866.733 22158621.443 10 0 59825 75600.00000 0 -3360130.238 -10924884.414 22841705.399 10 0 59825 76500.00000 0 -535007.514 -10913360.365 23082960.568 10 0 59825 77400.00000 0 2286110.873 -11108422.305 22877543.911 10 0 59825 78300.00000 0 5034057.079 -11501954.787 22229219.165 10 0 59825 79200.00000 0 7642558.321 -12073925.500 21150301.296 10 0 59825 80100.00000 0 10050741.391 -12793227.682 19661439.367 10 0 59825 81000.00000 0 12205419.770 -13619005.401 17791240.272 10 0 59825 81900.00000 0 14063069.087 -14502408.259 15575738.462 10 0 59825 82800.00000 0 15591408.688 -15388703.848 13057719.839 10 0 59825 83700.00000 0 16770522.921 -16219660.753 10285910.804 10 0 59825 84600.00000 0 17593474.307 -16936102.773 7314046.443 10 0 59825 85500.00000 0 18066381.691 -17480526.888 4199834.726 10 0 59826 0.00000 0 18207958.908 -17799673.918 1003836.448 10 0 59826 900.00000 0 18048532.420 -17846941.956 -2211719.078 10 0 59826 1800.00000 0 17628578.564 -17584538.189 -5384154.478 10 0 59826 2700.00000 0 16996842.418 -16985276.137 -8451581.723 10 0 59826 3600.00000 0 16208118.020 -16033939.129 -11354126.454 10 0 59826 4500.00000 0 15320785.079 -14728149.927 -14035115.081 10 0 59826 5400.00000 0 14394207.945 -13078707.355 -16442199.302 10 0 59826 6300.00000 0 13486108.725 -11109373.807 -18528394.297 10 0 59826 7200.00000 0 12650027.585 -8856121.317 -20253008.689 10 0 59826 8100.00000 0 11932979.377 -6365867.219 -21582447.081 10 0 59826 9000.00000 0 11373407.015 -3694752.346 -22490868.819 10 0 59826 9900.00000 0 10999518.887 -906034.408 -22960689.945 10 0 59826 10800.00000 0 10828080.746 1932314.685 -22982918.880 10 0 59826 11700.00000 0 10863712.650 4750206.429 -22557319.984 10 0 59826 12600.00000 0 11098719.641 7478119.075 -21692402.774 10 0 59826 13500.00000 0 11513461.868 10049754.568 -20405238.287 10 0 59826 14400.00000 0 12077246.799 12404558.415 -18721107.410 10 0 59826 15300.00000 0 12749704.037 14489998.076 -16672989.448 10 0 59826 16200.00000 0 13482582.939 16263506.191 -14300902.192 10 0 59826 17100.00000 0 14221895.610 17694009.422 -11651107.486 10 0 59826 18000.00000 0 14910313.616 18762981.376 -8775198.895 10 0 59826 18900.00000 0 15489716.492 19464978.305 -5729090.082 10 0 59826 19800.00000 0 15903784.189 19807638.032 -2571924.136 10 0 59826 20700.00000 0 16100524.253 19811144.923 635074.461 10 0 59826 21600.00000 0 16034627.750 19507185.925 3829782.915 10 0 59826 22500.00000 0 15669555.476 18937443.594 6950375.556 10 0 59826 23400.00000 0 14979267.677 18151690.874 9936508.961 10 0 59826 24300.00000 0 13949525.484 17205568.492 12730474.742 10 0 59826 25200.00000 0 12578710.186 16158138.426 15278298.946 10 0 59826 26100.00000 0 10878126.414 15069315.591 17530768.132 10 0 59826 27000.00000 0 8871776.416 13997284.459 19444363.956 10 0 59826 27900.00000 0 6595614.112 12996007.473 20982089.816 10 0 59826 28800.00000 0 4096308.729 12112928.096 22114175.040 10 0 59826 29700.00000 0 1429567.550 11386963.144 22818644.313 10 0 59826 30600.00000 0 -1341914.965 10846867.207 23081742.200 10 0 59826 31500.00000 0 -4150799.139 10510036.876 22898204.915 10 0 59826 32400.00000 0 -6927638.816 10381804.600 22271373.897 10 0 59826 33300.00000 0 -9603514.255 10455252.233 21213148.204 10 0 59826 34200.00000 0 -12112652.184 10711553.150 19743775.303 10 0 59826 35100.00000 0 -14394926.076 11120830.116 17891482.551 10 0 59826 36000.00000 0 -16398133.824 11643494.768 15691954.374 10 0 59826 36900.00000 0 -18079958.361 12232014.293 13187663.135 10 0 59826 37800.00000 0 -19409529.177 12833032.624 10427064.578 10 0 59826 38700.00000 0 -20368518.645 13389757.990 7463671.625 10 0 59826 39600.00000 0 -20951725.925 13844516.617 4355023.272 10 0 59826 40500.00000 0 -21167122.572 14141364.495 1161567.899 10 0 59826 41400.00000 0 -21035356.592 14228645.739 -2054517.379 10 0 59826 42300.00000 0 -20588734.765 14061387.541 -5230547.621 10 0 59826 43200.00000 0 -19869725.675 13603428.021 -8304566.317 10 0 59826 44100.00000 0 -18929046.658 12829184.225 -11216571.259 10 0 59826 45000.00000 0 -17823416.188 11724982.715 -13909704.166 10 0 59826 45900.00000 0 -16613067.887 10289893.856 -16331378.907 10 0 59826 46800.00000 0 -15359132.809 8536032.309 -18434324.493 10 0 59826 47700.00000 0 -14121002.385 6488309.362 -20177520.843 10 0 59826 48600.00000 0 -12953785.119 4183646.387 -21527007.975 10 0 59826 49500.00000 0 -11905965.797 1669681.925 -22456552.130 10 0 59826 50400.00000 0 -11017366.938 -996973.258 -22948155.640 10 0 59826 51300.00000 0 -10317498.792 -3752859.658 -22992400.873 10 0 59826 52200.00000 0 -9824367.090 -6530081.645 -22588622.264 10 0 59826 53100.00000 0 -9543787.827 -9258907.618 -21744904.034 10 0 59826 54000.00000 0 -9469236.433 -11870448.760 -20477904.869 10 0 59826 54900.00000 0 -9582235.694 -14299304.450 -18812514.312 10 0 59826 55800.00000 0 -9853263.917 -16486064.225 -16781348.891 10 0 59826 56700.00000 0 -10243142.812 -18379562.802 -14424099.154 10 0 59826 57600.00000 0 -10704844.434 -19938795.443 -11786741.483 10 0 59826 58500.00000 0 -11185639.208 -21134415.508 -8920631.136 10 0 59826 59400.00000 0 -11629492.986 -21949753.948 -5881495.053 10 0 59826 60300.00000 0 -11979611.117 -22381320.665 -2728344.576 10 0 59826 61200.00000 0 -12181021.820 -22438769.329 477670.288 10 0 59826 62100.00000 0 -12183090.007 -22144329.693 3674442.760 10 0 59826 63000.00000 0 -11941856.074 -21531733.384 6800104.670 10 0 59826 63900.00000 0 -11422101.943 -20644679.920 9794212.602 10 0 59826 64800.00000 0 -10599058.288 -19534908.417 12598902.787 10 0 59826 65700.00000 0 -9459681.983 -18259956.220 15159993.582 10 0 59826 66600.00000 0 -8003450.712 -16880698.195 17428015.569 10 0 59826 67500.00000 0 -6242641.559 -15458768.846 19359151.008 10 0 59826 68400.00000 0 -4202081.392 -14053973.837 20916066.099 10 0 59826 69300.00000 0 -1918378.434 -12721797.565 22068621.468 10 0 59826 70200.00000 0 561334.716 -11511109.243 22794448.428 10 0 59826 71100.00000 0 3181096.611 -10462161.749 23079380.819 10 0 59826 72000.00000 0 5878183.175 -9604965.606 22917734.400 10 0 59826 72900.00000 0 8585461.701 -8958105.274 22312428.293 10 0 59826 73800.00000 0 11233937.810 -8528047.048 21274945.327 10 0 59826 74700.00000 0 13755392.118 -8308967.968 19825130.749 10 0 59826 75600.00000 0 16084999.231 -8283113.901 17990831.441 10 0 59826 76500.00000 0 18163821.657 -8421673.135 15807380.535 10 0 59826 77400.00000 0 19941075.398 -8686130.441 13316935.239 10 0 59826 78300.00000 0 21376072.748 -9030046.145 10567678.644 10 0 59826 79200.00000 0 22439760.371 -9401186.565 7612899.115 10 0 59826 80100.00000 0 23115786.962 -9743916.616 4509963.913 10 0 59826 81000.00000 0 23401054.166 -10001753.621 1319206.205 10 0 59826 81900.00000 0 23305725.982 -10119973.569 -1897252.985 10 0 59826 82800.00000 0 22852694.781 -10048158.105 -5076724.312 10 0 59826 83700.00000 0 22076525.447 -9742572.293 -8157186.214 10 0 59826 84600.00000 0 21021921.682 -9168269.913 -11078511.950 10 0 59826 85500.00000 0 19741779.376 -8300834.404 -13783661.621 10 0 59827 0.00000 0 18294910.115 -7127679.151 -16219813.826 10 0 59827 900.00000 0 16743531.363 -5648848.965 -18339414.262 10 0 59827 1800.00000 0 15150632.769 -3877288.514 -20101115.934 10 0 59827 2700.00000 0 13577328.728 -1838562.798 -21470595.883 10 0 59827 3600.00000 0 12080312.153 429957.987 -22421228.418 10 0 59827 4500.00000 0 10709517.058 2880415.804 -22934602.865 10 0 59827 5400.00000 0 9506089.014 5456228.837 -23000875.774 10 0 59827 6300.00000 0 8500748.683 8094227.938 -22618951.406 10 0 59827 7200.00000 0 7712616.488 10727075.350 -21796487.944 10 0 59827 8100.00000 0 7148546.328 13285864.046 -20549730.543 10 0 59827 9000.00000 0 6802994.329 15702788.760 -18903175.759 10 0 59827 9900.00000 0 6658425.774 17913777.022 -16889075.295 10 0 59827 10800.00000 0 6686240.496 19860970.856 -14546790.038 10 0 59827 11700.00000 0 6848175.182 21494956.367 -11922008.139 10 0 59827 12600.00000 0 7098121.186 22776649.460 -9065843.492 10 0 59827 13500.00000 0 7384279.224 23678760.747 -6033833.013 10 0 59827 14400.00000 0 7651558.592 24186780.521 -2884852.836 10 0 59827 15300.00000 0 7844118.795 24299444.949 320025.030 10 0 59827 16200.00000 0 7907945.998 24028666.287 3518713.302 10 0 59827 17100.00000 0 7793355.755 23398932.252 6649304.636 10 0 59827 18000.00000 0 7457317.119 22446201.457 9651258.714 10 0 59827 18900.00000 0 6865500.984 21216342.478 12466559.148 10 0 59827 19800.00000 0 5993967.310 19763182.561 15040818.998 10 0 59827 20700.00000 0 4830421.060 18146247.614 17324314.873 10 0 59827 21600.00000 0 3374984.471 16428287.355 19272931.231 10 0 59827 22500.00000 0 1640453.124 14672687.812 20848998.278 10 0 59827 23400.00000 0 -347975.612 12940877.646 22022008.741 10 0 59827 24300.00000 0 -2553491.888 11289834.687 22769200.978 10 0 59827 25200.00000 0 -4928949.600 9769794.832 23075998.100 10 0 59827 26100.00000 0 -7418578.878 8422257.275 22936294.993 10 0 59827 27000.00000 0 -9960066.497 7278367.957 22352587.594 10 0 59827 27900.00000 0 -12486920.730 6357747.996 21335941.168 10 0 59827 28800.00000 0 -14931025.029 5667815.877 19905796.939 10 0 59827 29700.00000 0 -17225276.826 5203632.184 18089619.059 10 0 59827 30600.00000 0 -19306203.414 4948274.247 15922386.699 10 0 59827 31500.00000 0 -21116446.937 4873726.313 13445938.910 10 0 59827 32400.00000 0 -22607015.058 4942249.107 10708182.868 10 0 59827 33300.00000 0 -23739202.736 5108172.398 7762178.993 10 0 59827 34200.00000 0 -24486103.387 5320035.845 4665119.381 10 0 59827 35100.00000 0 -24833644.448 5522987.983 1477218.618 10 0 59827 36000.00000 0 -24781101.948 5661341.547 -1739461.612 10 0 59827 36900.00000 0 -24341070.605 5681175.843 -4922230.612 10 0 59827 37800.00000 0 -23538889.210 5532874.169 -8009004.616 10 0 59827 38700.00000 0 -22411544.481 5173486.445 -10939534.945 10 0 59827 39600.00000 0 -21006099.219 4568814.334 -13656602.405 10 0 59827 40500.00000 0 -19377711.318 3695127.804 -16107152.729 10 0 59827 41400.00000 0 -17587327.979 2540437.879 -18243349.023 10 0 59827 42300.00000 0 -15699153.599 1105269.558 -20023519.006 10 0 59827 43200.00000 0 -13777999.465 -597099.519 -21412977.407 10 0 59827 44100.00000 0 -11886628.231 -2540945.904 -22384706.749 10 0 59827 45000.00000 0 -10083206.088 -4688940.363 -22919882.979 10 0 59827 45900.00000 0 -8418970.408 -6993485.856 -23008235.957 10 0 59827 46800.00000 0 -6936210.891 -9398497.057 -22648238.453 10 0 59827 47700.00000 0 -5666648.419 -11841546.191 -21847120.892 10 0 59827 48600.00000 0 -4630278.321 -14256284.704 -20620712.842 10 0 59827 49500.00000 0 -3834724.676 -16575038.927 -18993115.553 10 0 59827 50400.00000 0 -3275130.336 -18731470.773 -16996213.397 10 0 59827 51300.00000 0 -2934584.528 -20663192.313 -14669034.968 10 0 59827 52200.00000 0 -2785067.165 -22314225.416 -12056977.517 10 0 59827 53100.00000 0 -2788867.387 -23637204.440 -9210910.936 10 0 59827 54000.00000 0 -2900414.090 -24595231.316 -6186179.572 10 0 59827 54900.00000 0 -3068439.279 -25163307.104 -3041521.938 10 0 59827 55800.00000 0 -3238381.571 -25329282.075 162070.210 10 0 59827 56700.00000 0 -3354927.588 -25094286.667 3362531.198 10 0 59827 57600.00000 0 -3364583.805 -24472627.266 6497916.468 10 0 59827 58500.00000 0 -3218170.631 -23491152.943 9507590.636 10 0 59827 59400.00000 0 -2873134.249 -22188120.984 12333386.405 10 0 59827 60300.00000 0 -2295579.673 -20611609.476 14920713.129 10 0 59827 61200.00000 0 -1461940.361 -18817543.490 17219594.877 10 0 59827 62100.00000 0 -360214.844 -16867416.839 19185619.577 10 0 59827 63000.00000 0 1009281.326 -14825803.385 20780782.506 10 0 59827 63900.00000 0 2633680.115 -12757760.184 21974209.323 10 0 59827 64800.00000 0 4487852.922 -10726228.745 22742746.024 10 0 59827 65700.00000 0 6535219.371 -8789540.600 23071405.337 10 0 59827 66600.00000 0 8729041.456 -6999129.183 22953661.375 10 0 59827 67500.00000 0 11014151.856 -5397541.580 22391586.765 10 0 59827 68400.00000 0 13329047.392 -4016831.765 21395828.867 10 0 59827 69300.00000 0 15608263.334 -2877401.712 19985424.319 10 0 59827 70200.00000 0 17784932.335 -1987338.619 18187453.775 10 0 59827 71100.00000 0 19793423.510 -1342276.438 16036541.422 10 0 59827 72000.00000 0 21571952.919 -925788.410 13574206.866 10 0 59827 72900.00000 0 23065057.053 -710295.247 10848079.780 10 0 59827 73800.00000 0 24225825.638 -658451.886 7910990.697 10 0 59827 74700.00000 0 25017799.133 -724955.375 4819954.259 10 0 59827 75600.00000 0 25416449.738 -858698.036 1635063.843 10 0 59827 76500.00000 0 25410181.657 -1005174.841 -1581681.116 10 0 59827 77400.00000 0 25000806.420 -1109042.344 -4767591.680 10 0 59827 78300.00000 0 24203471.302 -1116719.344 -7860525.089 10 0 59827 79200.00000 0 23046042.302 -978917.058 -10800113.893 10 0 59827 80100.00000 0 21567966.694 -652989.147 -13528962.633 10 0 59827 81000.00000 0 19818662.800 -104999.371 -15993786.773 10 0 59827 81900.00000 0 17855505.086 688583.281 -18146469.788 10 0 59827 82800.00000 0 15741490.340 1739636.056 -19945016.076 10 0 59827 83700.00000 0 13542684.342 3047635.195 -21354379.929 10 0 59827 84600.00000 0 11325557.650 4599442.953 -22347153.608 10 0 59827 85500.00000 0 9154323.724 6369638.613 -22904100.832 10 0 59828 0.00000 0 7088392.103 8321379.688 -23014525.537 10 0 59828 900.00000 0 5180042.681 10407757.984 -22676469.327 10 0 59828 1800.00000 0 3472421.058 12573590.340 -21896734.698 10 0 59828 2700.00000 0 1997934.179 14757571.750 -20690734.978 10 0 59828 3600.00000 0 777114.589 16894697.305 -19082174.983 10 0 59828 4500.00000 0 -182002.524 18918851.907 -17102570.124 10 0 59828 5400.00000 0 -883965.950 20765458.839 -14790614.615 10 0 59828 6300.00000 0 -1345458.160 22374076.408 -12191412.305 10 0 59828 7200.00000 0 -1594329.995 23690834.341 -9355586.195 10 0 59828 8100.00000 0 -1668163.847 24670608.897 -6338284.880 10 0 59828 9000.00000 0 -1612428.333 25278846.880 -3198105.837 10 0 59828 9900.00000 0 -1478304.133 25492963.762 4042.981 10 0 59828 10800.00000 0 -1320274.043 25303259.130 3206121.074 10 0 59828 11700.00000 0 -1193579.581 24713312.930 6346150.179 10 0 59828 12600.00000 0 -1151651.462 23739847.529 9363403.168 10 0 59828 13500.00000 0 -1243621.895 22412062.729 12199564.915 10 0 59828 14400.00000 0 -1512022.732 20770472.349 14799843.824 10 0 59828 15300.00000 0 -1990765.444 18865291.294 17114013.838 10 0 59828 16200.00000 0 -2703487.002 16754440.105 19097368.383 10 0 59828 17100.00000 0 -3662330.587 14501249.189 20711569.450 10 0 59828 18000.00000 0 -4867212.121 12171956.930 21925376.895 10 0 59828 18900.00000 0 -6305603.855 9833103.892 22715245.195 10 0 59828 19800.00000 0 -7952845.272 7548929.322 23065777.131 10 0 59828 20700.00000 0 -9772970.080 5378876.143 22970026.036 10 0 59828 21600.00000 0 -11720017.194 3375306.127 22429640.745 10 0 59828 22500.00000 0 -13739773.772 1581518.681 21454849.740 10 0 59828 23400.00000 0 -15771880.451 30154.644 20064283.608 10 0 59828 24300.00000 0 -17752213.742 -1257948.929 18284637.520 10 0 59828 25200.00000 0 -19615448.544 -2274405.188 16150178.241 10 0 59828 26100.00000 0 -21297695.436 -3023397.484 13702103.060 10 0 59828 27000.00000 0 -22739103.451 -3521267.054 10987760.938 10 0 59828 27900.00000 0 -23886319.466 -3795584.677 8059749.065 10 0 59828 28800.00000 0 -24694700.291 -3883744.372 4974901.020 10 0 59828 29700.00000 0 -25130183.117 -3831137.757 1793185.321 10 0 59828 30600.00000 0 -25170733.679 -3688986.027 -1423464.463 10 0 59828 31500.00000 0 -24807308.850 -3511921.614 -4612364.664 10 0 59828 32400.00000 0 -24044290.852 -3355423.034 -7711316.854 10 0 59828 33300.00000 0 -22899372.736 -3273213.291 -10659837.927 10 0 59828 34200.00000 0 -21402898.402 -3314734.238 -13400359.000 10 0 59828 35100.00000 0 -19596684.061 -3522806.412 -15879367.766 10 0 59828 36000.00000 0 -17532370.506 -3931576.002 -18048470.149 10 0 59828 36900.00000 0 -15269375.915 -4564838.209 -19865348.812 10 0 59828 37800.00000 0 -12872536.141 -5434809.935 -21294598.608 10 0 59828 38700.00000 0 -10409532.680 -6541405.189 -22308421.910 10 0 59828 39600.00000 0 -7948217.458 -7872044.697 -22887169.948 10 0 59828 40500.00000 0 -5553947.547 -9402008.131 -23019719.822 10 0 59828 41400.00000 0 -3287041.938 -11095314.014 -22703680.488 10 0 59828 42300.00000 0 -1200466.890 -12906089.698 -21945424.636 10 0 59828 43200.00000 0 662154.046 -14780373.072 -20759947.040 10 0 59828 44100.00000 0 2268123.471 -16658269.485 -19170553.457 10 0 59828 45000.00000 0 3596782.791 -18476372.463 -17208387.511 10 0 59828 45900.00000 0 4640110.114 -20170346.078 -14911806.079 10 0 59828 46800.00000 0 5402781.320 -21677560.351 -12325616.590 10 0 59828 47700.00000 0 5901694.855 -22939669.197 -9500192.154 10 0 59828 48600.00000 0 6164983.331 -23905023.302 -6490482.675 10 0 59828 49500.00000 0 6230556.363 -24530817.656 -3354941.787 10 0 59828 50400.00000 0 6144238.315 -24784884.862 -154390.986 10 0 59828 51300.00000 0 5957581.277 -24647060.524 3049156.865 10 0 59828 52200.00000 0 5725446.562 -24110065.006 6193692.043 10 0 59828 53100.00000 0 5503457.182 -23179866.117 9218397.695 10 0 59828 54000.00000 0 5345428.558 -21875508.764 12064812.638 10 0 59828 54900.00000 0 5300885.104 -20228419.570 14677945.853 10 0 59828 55800.00000 0 5412766.314 -18281215.833 17007322.413 10 0 59828 56700.00000 0 5715417.835 -16086068.312 19007942.227 10 0 59828 57600.00000 0 6232951.038 -13702685.174 20641134.707 10 0 59828 58500.00000 0 6978039.370 -11195999.651 21875294.312 10 0 59828 59400.00000 0 7951201.884 -8633655.670 22686484.153 10 0 59828 60300.00000 0 9140604.588 -6083393.691 23058896.950 10 0 59828 61200.00000 0 10522389.122 -3610443.078 22985164.922 10 0 59828 62100.00000 0 12061516.948 -1275027.035 22466512.581 10 0 59828 63000.00000 0 13713096.184 869918.241 21512748.855 10 0 59828 63900.00000 0 15424138.289 2780716.755 20142097.446 10 0 59828 64800.00000 0 17135673.958 4424537.186 18380867.095 10 0 59828 65700.00000 0 18785142.282 5780522.872 16262966.053 10 0 59828 66600.00000 0 20308955.197 6840419.891 13829268.043 10 0 59828 67500.00000 0 21645131.141 7608676.322 11126839.860 10 0 59828 68400.00000 0 22735888.016 8102007.558 8208043.669 10 0 59828 69300.00000 0 23530086.122 8348444.934 5129530.046 10 0 59828 70200.00000 0 23985417.209 8385906.930 1951140.438 10 0 59828 71100.00000 0 24070245.615 8260352.756 -1265259.897 10 0 59828 72000.00000 0 23765021.601 8023596.450 -4456995.196 10 0 59828 72900.00000 0 23063204.809 7730874.653 -7561814.106 10 0 59828 73800.00000 0 21971656.487 7438272.421 -10519120.628 10 0 59828 74700.00000 0 20510481.912 7200117.934 -13271175.129 10 0 59828 75600.00000 0 18712328.132 7066458.769 -15764240.062 10 0 59828 76500.00000 0 16621165.743 7080728.987 -17949646.131 10 0 59828 77400.00000 0 14290605.793 7277708.144 -19784756.367 10 0 59828 78300.00000 0 11781822.954 7681860.614 -21233808.068 10 0 59828 79200.00000 0 9161172.914 8306126.997 -22268615.365 10 0 59828 80100.00000 0 6497604.991 9151219.692 -22869118.384 10 0 59828 81000.00000 0 3859979.283 10205452.759 -23023768.501 10 0 59828 81900.00000 0 1314401.299 11445113.158 -22729742.801 10 0 59828 82800.00000 0 -1078314.129 12835357.086 -21992984.488 10 0 59828 83700.00000 0 -3264944.055 14331592.799 -20828069.674 10 0 59828 84600.00000 0 -5201828.638 15881290.659 -19257904.469 10 0 59828 85500.00000 0 -6856431.563 17426143.215 -17313259.604 99